User: anonymous   Login
Location: Unspecified
(0.0000°N, 0.0000°E)
Time: 05:37:58
(UTC+00:00)
Language:

Envisat - Orbit

View from above orbital plane
View from above orbital plane
View from above satellite
View from above satellite

Ground track
Ground track

The orbit data is extracted from the following two-line orbital elements,

1 27386U 02009A   22176.87392774  .00000081  00000-0  40088-4 0  9995
2 27386  98.1834 157.5866 0001332  90.3912 334.2914 14.38134394 64749
Epoch (UTC): 25 June 2022 20:58:27
Eccentricity: 0.0001332
inclination: 98.1834°
perigee height: 764 km
apogee height: 765 km
right ascension of ascending node: 157.5866°
argument of perigee: 90.3912°
revolutions per day: 14.38134394
mean anomaly at epoch: 334.2914°
orbit number at epoch: 6474

The dashed part of the orbit path shows where the satellite is in the earth's shadow,  

DLR